Main page
METAR-TAF:

METAR-TAF

Airports :

Usiminas Airport

Ipatinga, Minas Gerais, Brazil

latitude: 19-28-14S, longitude: 042-29-17W, elevation: 239 m

Current weather observation

The report was made 3 hours and 16 minutes ago, at 02:00 UTC
Wind 6 kt from the North
Temperature 24°C
Humidity 89%
Pressure 1014 hPa
Visibility 10 km or more
Scattered clouds at a height of 4000 ft

METAR: SBIP 290200Z 36006KT 9999 SCT040 24/22 Q1014

Time: 02:16 (05:16 UTC)


TAF: missing

Weather observations and forecasts of more than 4000 airports (METAR and TAF reports).

The available stations are represented by yellow and red dots on the map.

Hover mouse over dot to see the name of the station.

Then click to see weather observations and forecasts.

To change the map : click on the green buttons with a black cross to zoom in, on the green button with a dash to zoom out, or on the green arrows for adjacent maps.


METAR-TAF: